Location: Possagno
(45.8500°N, 11.8667°E)
Time: 16:45:31
(UTC+00:00)

Resurs 1-4 Rocket - Visible Passes

Search period start: 28 September 2020 00:00
Search period end: 08 October 2020 00:00
Orbit: 799 x 814 km, 98.6° (Epoch: 27 September)

Date Brightness Start Highest point End Pass type
(mag) Time Alt. Az. Time Alt. Az. Time Alt. Az.
28 Sep 4.8 00:11:08 10° NNE 00:11:53 14° NE 00:11:53 14° NE visible
28 Sep 4.0 01:51:03 10° N 01:52:57 20° NNW 01:52:57 20° NNW visible
29 Sep 4.1 01:26:10 10° N 01:27:57 21° N 01:27:57 21° N visible
30 Sep 4.4 01:01:26 10° NNE 01:02:55 19° NNE 01:02:55 19° NNE visible
30 Sep 4.3 02:43:05 10° NNW 02:43:59 12° NW 02:43:59 12° NW visible
01 Oct 4.7 00:36:52 10° NNE 00:37:55 16° NNE 00:37:55 16° NNE visible
01 Oct 4.2 02:17:33 10° NNW 02:18:59 16° NNW 02:18:59 16° NNW visible
02 Oct 5.0 00:12:29 10° NNE 00:12:53 12° NNE 00:12:53 12° NNE visible
02 Oct 4.2 01:52:27 10° N 01:53:57 18° NNW 01:53:57 18° NNW visible
03 Oct 4.3 01:27:33 10° N 01:28:56 18° N 01:28:56 18° N visible
04 Oct 4.6 01:02:49 10° NNE 01:03:55 17° NNE 01:03:55 17° NNE visible
04 Oct 4.4 02:44:32 10° NNW 02:45:00 11° NNW 02:45:00 11° NNW visible
05 Oct 4.8 00:38:15 10° NNE 00:38:54 14° NNE 00:38:54 14° NNE visible
05 Oct 4.3 02:18:59 10° NNW 02:19:58 14° NNW 02:19:58 14° NNW visible
06 Oct 5.1 00:13:51 10° NNE 00:13:53 10° NNE 00:13:53 10° NNE visible
06 Oct 4.4 01:53:52 10° N 01:54:57 15° N 01:54:57 15° N visible
07 Oct 4.5 01:28:57 10° N 01:29:56 16° N 01:29:56 16° N visible
